Regional Weather Roundup
Issued by NWS

Home | Current Version | Previous Version | Text Only | Print | Product List | Glossary On
Versions: 1 2 3 4 5 6 7 8 9 10 11 12 13 14 15 16 17 18 19 20 21 22 23 24 25 26 27 28 29 30 31 32 33 34 35 36 37 38 39 40 41 42 43 44 45 46 47 48 49 50
000
ASUS44 KOUN 280000
RWROK

WEATHER ROUNDUP FOR OKLAHOMA
NATIONAL WEATHER SERVICE NORMAN OK
700 PM CDT TUE JUN 27 2017

NOTE: "FAIR" INDICATES FEW OR NO CLOUDS BELOW 12,000 FEET WITH NO
      SIGNIFICANT WEATHER AND/OR OBSTRUCTIONS TO VISIBILITY.

OKZ001>007-009>012-014-015-017-280100-
NORTHWEST OKLAHOMA AND THE PANHANDLE

CITY           SKY/WX    TMP DP  RH WIND       PRES   REMARKS
GAGE           SUNNY     92  59  33 S22G31    29.84F HX  91
6HR MIN TEMP:  92; 6HR MAX TEMP:  96;

GUYMON         SUNNY     92  59  33 S22G30    29.79F HX  91
ENID/WOODRING  MOSUNNY   90  63  40 SE20      29.84F HX  90
$$

OKZ016-021>023-033>039-044-045-280100-
SOUTHWEST OKLAHOMA

CITY           SKY/WX    TMP DP  RH WIND       PRES   REMARKS
LAWTON/REGL    SUNNY     88  68  51 SE14      29.89F HX  91
6HR MIN TEMP:  88; 6HR MAX TEMP:  93;

LAWTON/FT SILL MOSUNNY   88  71  55 S15G22    29.88F HX  94
FREDERICK      SUNNY     93  63  36 SE18      29.85F HX  94
CLINTON        SUNNY     91  60  35 S23G29    29.89F HX  90
HOBART         SUNNY     91  63  39 S22G29    29.88F HX  92
ALTUS AFB      SUNNY     91  61  36 SE17      29.87F HX  91
$$

OKZ018>020-024>031-280100-
CENTRAL OKLAHOMA

CITY           SKY/WX    TMP DP  RH WIND       PRES   REMARKS
OKLAHOMA CITY  MOSUNNY   89  63  41 SE18G24   29.89F HX  90
6HR MIN TEMP:  86; 6HR MAX TEMP:  92;

OKC/WILEY POST SUNNY     91  62  37 S16G24    29.88F HX  91
OKC/TINKER AFB SUNNY     89  65  44 SE12G21   29.89  HX  91
STILLWATER     SUNNY     89  63  41 S14G26    29.88F HX  90
GUTHRIE        SUNNY     90  65  43 S12G22    29.88F HX  92
$$

OKZ008-013-054>072-280100-
NORTHEAST OKLAHOMA

CITY           SKY/WX    TMP DP  RH WIND       PRES   REMARKS
TULSA          SUNNY     87  66  49 SE14G23   29.89F
6HR MIN TEMP:  86; 6HR MAX TEMP:  90;

TULSA/JONES    SUNNY     88  64  44 S12       29.90F
PONCA CITY     SUNNY     89  65  44 SE21G26   29.85F HX  91
BARTLESVILLE   SUNNY     86  62  44 S13       29.91F
MUSKOGEE       SUNNY     84  67  56 SE8       29.94F
$$

OKZ032-040>043-046>053-073>077-280100-
SOUTH CENTRAL/SOUTHEAST OKLAHOMA

CITY           SKY/WX    TMP DP  RH WIND       PRES   REMARKS
MCALESTER      SUNNY     88  67  49 SE7       29.94F HX  91
$$





USA.gov is the U.S. government's official web portal to all federal, state and local government web resources and services.